FENGYUN 1C DEB

Satellite information

Favourite Embed

Satellite Type and Status

DEBRISIN ORBIT

Key statistics

Satellite FENGYUN 1C DEB at a glance.

Uptime

9715

Days in orbit

Revolutions

≈ 14.2

Per day

Orbit

SSO

Sun Synchronous Orbit

Inclination

99.0

Latest

Satellite identification and parameters

Extended collection of information and parameters for FENGYUN 1C DEB.

Object identification

Identified? True

Debris? True

Object name: FENGYUN 1C DEB

International designator: 1999-025BMU

Object number (NORAD): 31262

Object ID (CCSDS): 31262

Country: PEOPLES REPUBLIC OF CHINA (PRC)

Current information (Y/N): Y

RCS size: SMALL

Orbital parameters

Period: 101.539 minutes

Inclination: 99.0033 deg

SMA: 7209.654 km

Apoapsis: 871.252 km

Periapsis: 791.787 km

RAAN: 69.6362 deg

Eccentricy: 0.00551106

Argument of periapsis: 99.6223 deg

Mean anomaly: 290.2815 deg

Mean motion: 14.18179117 rev/day

Mean motion (dot): 0.00005576 rev/day2

B* drag term: 0.0026931528 1/REarth

Two-line elements (TLE)

Creation date: Dec. 12, 2025, 10:14 a.m.

Reference frame: TEME

Reference center: EARTH

Epoch: Dec. 12, 2025, 4:27 a.m. UTC

TLE line 0: 0 FENGYUN 1C DEB

TLE line 1: 1 31262U 99025BMU 25346.18605778 .00005576 00000-0 26932-2 0 9998

TLE line 2: 2 31262 99.0033 69.6362 0055111 99.6223 290.2815 14.18179117957015

Live tracking on map

Real-time ground track for satellite FENGYUN 1C DEB.

In-orbit conjunctions

A list of the most updated potential collisions computed for object FENGYUN 1C DEB.

Target Orbit TCA Probability of collision Miss distance Type
EYESAT A SSO 2025-10-09 08:48:56 0.0001106849 805.0 (m) PAYLOAD
CZ-6A DEB LEO 2024-09-29 06:10:44 0.0002563804 364.0 (m) DEBRIS
SL-16 DEB LEO 2024-07-18 00:49:40 0.0006007 21.0 (m) DEBRIS

Associated space launch

Chinese polar orbiting meteorological satellite

FENGYUN 1C DEB was lifted into orbit during the mission ‘Long March 4B | Feng Yun 1C’, on board a Long March 4B space rocket.

The launch took place on May 10, 1999, 1:33 a.m. from Launch Complex 7.

For more information about the launch, click the button.

Launch to space Long March 4B | Feng Yun 1C
Long March 4B | Feng Yun 1C

Agency: N/A

Status: Launch Successful

Launch date: May 10, 1999, 1:33 a.m. UTC

Rocket: Long March 4B

Launch pad: Launch Complex 7

Location: Taiyuan Satellite Launch Center, People's Republic of China

...

Latest news about this satellite

There are no fresh news available about this satellite. Check back as we update our databases every day.


Newsletter sign-up

Weekly statistics, charts and insights to help you stay on top of the space industry.